星链-4594 (STARLINK-4594 )

导读 | 豆包AI

STARLINK-4594是美国太空探索技术公司(SpaceX)星链(Starlink)星座中的一颗卫星,于2022年8月28日发射升空,归入低地球轨道运行。星链项目旨在构建全球卫星互联网系统,为全球范围提供高速宽带网络服务,尤其服务于偏远地区与网络基础设施薄弱区域。 作为星链庞大星座的组成单元,该卫星承担着通信信号中继转发的功能,助力星链实现全球覆盖的网络布局,持续推动太空互联网基础设施的建设与拓展,至今仍在既定轨道承担相关通信任务。

基本信息
目录编号:
53638
目录名称:
STARLINK-4594
国际标识:
2022-104BC
轨道中心:
EARTH
卫星名称:
星链-4594
卫星全名:
星链-4594 (STARLINK-4594 )
卫星状态:
在轨 (已飞行1295 天)
发射日期:
2022-08-28 UTC
国别 :
美国 (US)
星等 :
--
轨道信息
数据来源 国际轨道数据
星历时间: 2026-03-15T01:52:26+0800
14小时前
查看轨道信息
半长轴: 6917.88km
偏心率: 0.0001262
轨道倾角: 53.217°
近地点辐角 90.061°
升交点赤经 201.059°
平近点角 270.053°
近地点: 538.869km
远地点: 540.617km
周期: 95.438分钟
每日圈数: 15.088402
详细信息
固有亮度:
5
最大亮度:
2.5
卫星平台:
Starlink v1.5
覆盖范围:
全球
运营商:
太空探索技术公司
运营商所在国:
美国
制造商(研发单位):
太空探索技术公司
制造商所在国:
美国
使用方式:
暂无
卫星简介
星链(Starlink)计划是由太空探索技术公司(SpaceX)提出的一个巨型低轨卫星互联网星座项目,计划在2019年至2024年间在太空搭建由约1.2万颗卫星组成的“星链”网络,其中1584颗将部署在地球上空550千米处的近地轨道,并从2020年开始工作。该卫星仍在工作。
2D轨道图
3D轨道图
轨道高度分析图
轨道倾角分析图
轨道综合分析图
查看轨道综合分析图